Date String (YYYY-MM-DD hh:mm:ss) UTC,Instrument flags,Ambient pressure (hPa),Sample flow (lpm),Bypass flow (lpm),Sample temperature (°C),Ambient temperature (°C),ASC tube jacket temperature (°C),LED temperature (°C),Box temperature (°C),Sample RH (%),Span deviation,Mass concentration (μg/m³),Mass concentration (μg/m³),Mass concentration (μg/m³)
DateTimeUTC,F1_M11,P_M11,Q1_M11,Q2_M11,T1_M11,T2_M11,T3_M11,T4_M11,T5_M11,U1_M11,ZSPAN_M11,X0_M11,X2_M11,X1_M11
2022-07-28 09:00:00,,0831.0,5.00,0.00,33.1,29.0,00.0,40.3,32.7,35.1,0000.0,0013.70,0008.06,0006.92
2022-07-28 09:01:00,,0831.1,5.01,0.00,33.2,29.0,00.0,40.3,32.8,35.1,0000.6,0013.35,0008.05,0006.91
2022-07-28 09:02:00,,0831.1,4.99,0.00,33.4,29.1,00.0,40.4,33.0,34.6,0001.7,0013.40,0008.02,0006.87
2022-07-28 09:03:00,,0831.1,5.00,0.00,33.5,29.1,00.0,40.5,33.0,34.5,0001.5,0013.91,0008.06,0006.84
2022-07-28 09:04:00,,0831.2,4.99,0.00,33.5,29.2,00.0,40.6,33.0,34.6,0001.2,0014.46,0008.07,0006.79
2022-07-28 09:05:00,,0831.2,5.02,0.00,33.4,29.2,00.0,40.6,33.0,34.6,0000.2,0014.06,0008.01,0006.73
2022-07-28 09:06:00,,0831.2,5.00,0.00,33.4,29.3,00.0,40.7,33.0,34.8,0001.4,0014.90,0007.98,0006.67
2022-07-28 09:07:00,,0831.2,5.00,0.00,33.3,29.3,00.0,40.8,33.0,34.9,0000.0,0015.06,0007.91,0006.58
2022-07-28 09:08:00,,0831.2,5.01,0.00,33.3,29.4,00.0,40.8,33.0,35.0,0000.4,0015.42,0007.82,0006.47
2022-07-28 09:09:00,,0831.2,4.99,0.00,33.2,29.4,00.0,40.9,33.0,35.1,0000.4,0015.50,0007.70,0006.35
2022-07-28 09:10:00,,0831.1,5.01,0.00,33.3,29.4,00.0,40.9,33.2,34.9,0000.0,0015.39,0007.57,0006.23
2022-07-28 09:11:00,,0831.2,4.99,0.00,33.4,29.5,00.0,40.9,33.2,34.6,0000.0,0015.41,0007.45,0006.06
2022-07-28 09:12:00,,0831.2,5.00,0.00,33.5,29.5,00.0,41.0,33.2,34.2,0000.0,0015.52,0007.33,0005.91
2022-07-28 09:13:00,,0831.2,4.99,0.00,33.4,29.5,00.0,41.0,33.2,34.2,0000.0,0016.38,0007.22,0005.78
2022-07-28 09:14:00,,0831.2,5.01,0.00,33.4,29.5,00.0,41.0,33.2,34.3,0000.0,0016.65,0007.10,0005.66
2022-07-28 09:15:00,,0831.2,4.99,0.00,33.3,29.4,00.0,41.0,33.1,34.4,0000.0,0016.48,0006.93,0005.54
2022-07-28 09:16:00,,0831.2,5.00,0.00,33.3,28.7,00.0,41.0,33.1,34.4,0000.0,0019.45,0006.89,0005.45
2022-07-28 09:17:00,,0831.2,4.99,0.00,33.2,28.2,00.0,41.0,33.0,34.5,0000.0,0019.63,0006.81,0005.36
2022-07-28 09:18:00,,0831.2,5.00,0.00,33.0,28.1,00.0,41.0,32.8,34.8,0000.0,0019.64,0006.67,0005.27
2022-07-28 09:19:00,,0831.1,5.00,0.00,32.9,28.2,00.0,40.9,32.8,35.2,0000.0,0019.18,0006.56,0005.19
2022-07-28 09:20:00,,0831.2,4.99,0.00,33.0,28.2,00.0,40.9,32.9,35.1,0000.0,0018.99,0006.51,0005.11
2022-07-28 09:21:00,,0831.2,5.00,0.00,33.1,28.4,00.0,40.9,33.0,34.8,0000.0,0019.56,0006.43,0005.02
2022-07-28 09:22:00,,0831.2,4.99,0.00,33.2,28.5,00.0,40.8,33.0,34.7,0000.0,0019.64,0006.30,0004.96
2022-07-28 09:23:00,,0831.2,5.00,0.00,33.2,28.6,00.0,40.9,32.9,34.7,0000.0,0020.48,0006.30,0004.92
2022-07-28 09:24:00,,0831.2,5.01,0.00,33.2,28.7,00.0,40.9,32.9,34.9,0000.0,0019.58,0006.28,0004.92
2022-07-28 09:25:00,,0831.2,5.00,0.00,33.1,28.8,00.0,40.9,32.9,35.2,0000.0,0019.08,0006.27,0004.94
2022-07-28 09:26:00,,0831.2,5.00,0.00,33.2,28.9,00.0,40.9,33.0,35.0,0000.0,0018.57,0006.33,0004.94
2022-07-28 09:27:00,,0831.2,4.99,0.00,33.4,29.0,00.0,40.9,33.1,34.6,0000.0,0015.57,0006.34,0004.93
2022-07-28 09:28:00,,0831.2,5.01,0.00,33.5,29.1,00.0,41.0,33.1,34.4,0000.0,0015.15,0006.30,0004.91
2022-07-28 09:29:00,,0831.3,5.00,0.00,33.5,29.1,00.0,41.0,33.1,34.2,0000.0,0015.55,0006.27,0004.88
2022-07-28 09:30:00,,0831.3,4.99,0.00,33.4,29.2,00.0,41.0,33.1,34.0,0000.0,0015.67,0006.24,0004.83
2022-07-28 09:31:00,,0831.3,5.02,0.00,33.4,29.3,00.0,41.1,33.1,33.9,0000.0,0015.71,0006.23,0004.80
2022-07-28 09:32:00,,0831.3,4.99,0.00,33.3,29.3,00.0,41.1,33.1,33.8,0000.0,0014.84,0006.19,0004.79
2022-07-28 09:33:00,,0831.4,5.00,0.00,33.2,29.4,00.0,41.1,33.1,33.7,0000.0,0015.15,0006.23,0004.78
2022-07-28 09:34:00,,0831.4,5.01,0.00,33.2,29.4,00.0,41.1,33.1,33.6,0000.0,0014.92,0006.22,0004.79
2022-07-28 09:35:00,,0831.4,4.99,0.00,33.1,29.4,00.0,41.1,33.1,33.8,0000.0,0015.32,0006.18,0004.76
2022-07-28 09:36:00,,0831.4,5.00,0.00,33.0,29.5,00.0,41.1,33.1,34.0,0000.0,0014.96,0006.11,0004.73
2022-07-28 09:37:00,,0831.5,4.99,0.00,33.0,29.5,00.0,41.1,33.1,33.9,0000.0,0014.94,0006.05,0004.71
2022-07-28 09:38:00,,0831.4,5.00,0.00,32.9,29.5,00.0,41.1,33.1,33.9,0000.0,0015.28,0005.95,0004.70
2022-07-28 09:39:00,,0831.4,5.00,0.00,32.9,29.6,00.0,41.1,33.1,34.0,0000.0,0015.15,0005.90,0004.70
2022-07-28 09:40:00,,0831.4,5.01,0.00,32.8,29.6,00.0,41.1,33.1,34.1,0000.0,0014.83,0005.97,0004.73
2022-07-28 09:41:00,,0831.4,4.99,0.00,32.7,29.6,00.0,41.0,33.1,34.0,0000.0,0014.80,0005.97,0004.77
2022-07-28 09:42:00,,0831.4,5.01,0.00,32.7,29.5,00.0,41.0,33.1,33.9,0000.0,0014.44,0005.93,0004.81
2022-07-28 09:43:00,,0831.4,5.02,0.00,32.6,28.8,00.0,40.9,33.0,34.0,0000.0,0014.67,0005.97,0004.84
2022-07-28 09:44:00,,0831.4,5.00,0.00,32.5,28.2,00.0,40.8,32.9,34.2,0000.0,0014.19,0005.96,0004.87
2022-07-28 09:45:00,,0831.4,4.99,0.00,32.4,28.0,00.0,40.8,32.8,34.6,0000.0,0013.94,0005.94,0004.89
2022-07-28 09:46:00,,0831.4,5.00,0.00,32.2,28.1,00.0,40.7,32.6,34.7,0000.0,0013.54,0005.95,0004.91
2022-07-28 09:47:00,,0831.3,5.02,0.00,32.1,28.2,00.0,40.7,32.6,34.9,0000.0,0014.27,0005.98,0004.93
2022-07-28 09:48:00,,0831.3,4.99,0.00,32.0,28.3,00.0,40.6,32.6,35.0,0000.0,0013.99,0006.00,0004.96
2022-07-28 09:49:00,,0831.2,5.01,0.00,32.0,28.4,00.0,40.6,32.7,35.0,0000.0,0013.62,0006.04,0004.98
2022-07-28 09:50:00,,0831.3,5.00,0.00,32.1,28.6,00.0,40.5,32.8,34.8,0000.0,0013.47,0006.08,0005.00
2022-07-28 09:51:00,,0831.3,5.00,0.00,32.1,28.7,00.0,40.5,32.7,34.6,0000.0,0013.10,0006.05,0004.99
2022-07-28 09:52:00,,0831.3,4.99,0.00,32.1,28.8,00.0,40.5,32.7,34.5,0000.0,0012.66,0006.04,0004.99
2022-07-28 09:53:00,,0831.4,4.99,0.00,32.1,28.9,00.0,40.4,32.7,34.6,0000.0,0013.06,0006.10,0004.98
2022-07-28 09:54:00,,0831.4,5.00,0.00,32.0,29.0,00.0,40.4,32.7,34.8,0000.0,0013.50,0006.05,0004.99
2022-07-28 09:55:00,,0831.4,5.00,0.00,32.0,29.0,00.0,40.4,32.7,34.9,0000.0,0013.72,0006.05,0004.98
2022-07-28 09:56:00,,0831.4,5.01,0.00,32.0,29.1,00.0,40.4,32.7,35.2,0000.0,0014.41,0006.05,0004.96
2022-07-28 09:57:00,,0831.4,5.01,0.00,32.1,29.2,00.0,40.4,32.9,35.2,0000.0,0013.91,0006.02,0004.93
2022-07-28 09:58:00,,0831.6,5.00,0.00,32.4,29.2,00.0,40.4,33.0,34.6,0000.0,0013.95,0005.98,0004.90
2022-07-28 09:59:00,,0831.6,5.00,0.00,32.5,29.3,00.0,40.4,33.0,34.3,0000.0,0014.28,0005.94,0004.86
